EA3KZ-1 Weather Reports


time (UTC)temp
C
wind
direction
speed
KPH
gust
KPH
rain 1hr
cm
rain 24hr
cm
rain mn
cm
humidity
%
barometer
mb
20260508065610 15 351 1.6 6.4 0.00 0.00 0.00 64 1008.5
20260508064607 15 327 1.6 3.2 0.00 0.00 0.00 63 1008.6
20260508063604 15 16 3.2 6.4 0.00 0.00 0.00 62 1008.5
20260508062602 15 0.0 0.0 0.00 0.00 0.00 61 1008.5
20260508061559 14 0.0 0.0 0.00 0.00 0.00 64 1008.4
20260508060556 12 278 1.6 3.2 0.00 0.00 0.00 68 1008.3
20260508055554 11 230 1.6 3.2 0.00 0.00 0.00 73 1008.2
20260508054551 11 0.0 3.2 0.00 0.00 0.00 73 1008.4
20260508053549 11 0.0 0.0 0.00 0.00 0.00 71 1008.1
20260508052546 11 302 1.6 3.2 0.00 0.00 0.00 70 1008.0
20260508051543 11 296 3.2 3.2 0.00 0.00 0.00 70 1007.8
20260508050541 11 275 1.6 3.2 0.00 0.00 0.00 70 1007.7
20260508045538 11 269 1.6 3.2 0.00 0.00 0.00 72 1007.7
20260508044535 11 265 3.2 6.4 0.00 0.00 0.00 72 1007.8
20260508043533 11 240 3.2 6.4 0.00 0.00 0.00 71 1007.8
20260508042530 11 0.0 0.0 0.00 0.00 0.00 72 1007.7
20260508041528 11 282 3.2 6.4 0.00 0.00 0.00 73 1007.6
20260508040525 11 315 1.6 3.2 0.00 0.00 0.00 76 1007.6
20260508035522 11 0.0 0.0 0.00 0.00 0.00 75 1007.4
20260508034520 11 270 0.0 3.2 0.00 0.00 0.00 74 1007.5
20260508033517 11 315 0.0 3.2 0.00 0.00 0.00 74 1007.4
20260508032515 11 0.0 0.0 0.00 0.00 0.00 74 1007.6
20260508031612 11 0.0 0.0 0.00 0.00 0.00 75 1007.6
20260508030609 11 293 0.0 3.2 0.00 0.00 0.00 76 1007.7
20260508025607 11 0.0 0.0 0.00 0.00 0.00 76 1007.7
20260508024604 11 0.0 0.0 0.00 0.00 0.00 77 1007.6
20260508023602 11 0.0 0.0 0.00 0.00 0.00 77 1007.8
20260508022559 12 0.0 0.0 0.00 0.00 0.00 76 1007.9
20260508021556 12 0.0 3.2 0.00 0.00 0.00 74 1007.8
20260508020554 12 248 0.0 3.2 0.00 0.00 0.00 73 1007.9
20260508015551 12 270 0.0 3.2 0.00 0.00 0.00 75 1008.0
20260508014549 12 271 1.6 3.2 0.00 0.00 0.00 75 1008.0
20260508013546 12 270 1.6 3.2 0.00 0.00 0.00 75 1008.1
20260508012543 12 259 0.0 3.2 0.00 0.00 0.00 77 1008.2
20260508011541 12 0.0 0.0 0.00 0.00 0.00 75 1008.3
20260508010538 12 0.0 0.0 0.00 0.00 0.00 76 1008.4
20260508005536 12 0.0 3.2 0.00 0.00 0.00 77 1008.4
20260508004533 12 315 1.6 3.2 0.00 0.00 0.00 76 1008.4
20260508003530 12 0.0 3.2 0.00 0.00 0.00 78 1008.5
20260508002528 12 248 0.0 3.2 0.00 0.00 0.00 76 1008.6
20260508001525 12 218 0.0 3.2 0.00 0.00 0.00 78 1008.7
20260508000522 13 0.0 3.2 0.00 0.00 0.00 73 1008.8
20260507235520 13 272 1.6 3.2 0.00 0.00 0.00 75 1008.8
20260507234517 12 264 1.6 6.4 0.00 0.00 0.00 75 1009.0
20260507233514 13 197 1.6 6.4 0.00 0.00 0.00 77 1009.0
20260507232613 13 251 3.2 6.4 0.00 0.00 0.00 77 1009.0
20260507231610 12 281 1.6 6.4 0.00 0.00 0.00 80 1009.1
20260507230607 12 220 1.6 3.2 0.00 0.00 0.00 82 1009.2
20260507225604 12 293 1.6 3.2 0.00 0.00 0.00 84 1009.4
20260507224602 12 263 1.6 3.2 0.00 0.00 0.00 86 1009.5
20260507223559 13 0.0 0.0 0.00 0.00 0.00 86 1009.5
20260507222557 13 273 1.6 3.2 0.00 0.00 0.00 86 1009.6
20260507221554 13 226 3.2 6.4 0.00 0.00 0.00 86 1009.6
20260507220551 13 232 3.2 6.4 0.00 0.00 0.00 86 1009.6
20260507215549 13 230 4.8 9.7 0.00 0.00 0.00 85 1009.7
20260507214546 13 270 3.2 6.4 0.00 0.00 0.00 85 1009.7
20260507213544 13 270 0.0 3.2 0.00 0.00 0.00 85 1009.6
20260507212541 13 287 3.2 3.2 0.00 0.00 0.00 85 1009.7
20260507211538 13 285 3.2 3.2 0.00 0.00 0.00 85 1009.6
20260507210536 13 304 1.6 3.2 0.00 0.00 0.00 85 1009.7
20260507205533 13 58 1.6 3.2 0.00 0.00 0.00 84 1009.7
20260507204530 13 146 0.0 3.2 0.00 0.00 0.00 84 1009.6
20260507203528 13 94 1.6 3.2 0.00 0.00 0.00 84 1009.6
20260507202525 13 90 0.0 3.2 0.00 0.00 0.00 83 1009.5
20260507201523 14 32 1.6 3.2 0.00 0.00 0.00 82 1009.5
20260507200520 14 0.0 3.2 0.00 0.00 0.00 82 1009.3
20260507195517 14 30 0.0 3.2 0.00 0.00 0.00 81 1009.2
20260507194515 14 28 1.6 3.2 0.00 0.00 0.00 81 1009.0
20260507193612 14 350 3.2 9.7 0.00 0.00 0.00 80 1008.8
20260507192610 14 34 3.2 6.4 0.00 0.00 0.00 79 1008.6
20260507191607 14 97 1.6 6.4 0.00 0.00 0.00 79 1008.7
20260507190605 14 72 1.6 6.4 0.00 0.00 0.00 81 1008.5
20260507185602 14 348 1.6 6.4 0.00 0.00 0.00 81 1008.2
20260507184559 15 37 1.6 6.4 0.00 0.00 0.00 80 1008.2
20260507183557 15 153 3.2 9.7 0.00 0.00 0.00 79 1008.2
20260507182554 15 48 3.2 9.7 0.00 0.00 0.00 78 1008.0
20260507181552 15 96 3.2 6.4 0.00 0.00 0.00 78 1007.9
20260507180549 15 209 6.4 11.3 0.00 0.00 0.00 77 1007.8
20260507175546 16 113 3.2 6.4 0.00 0.00 0.00 75 1007.7
20260507174544 15 32 8.0 14.5 0.00 0.00 0.00 74 1007.7
20260507173541 16 128 3.2 9.7 0.00 0.00 0.00 74 1007.6
20260507172538 16 161 1.6 6.4 0.00 0.00 0.00 73 1007.6
20260507171536 16 86 4.8 14.5 0.00 0.00 0.00 71 1007.5
20260507170533 16 77 3.2 9.7 0.00 0.00 0.00 71 1007.3
20260507165531 16 28 6.4 14.5 0.00 0.00 0.00 71 1007.4
20260507164528 16 8 4.8 11.3 0.00 0.00 0.00 69 1007.4
20260507163526 16 48 6.4 17.7 0.00 0.00 0.00 70 1007.3
20260507162523 17 102 4.8 17.7 0.00 0.00 0.00 70 1007.3
20260507161520 17 356 6.4 17.7 0.00 0.00 0.00 68 1007.4
20260507160518 17 63 6.4 17.7 0.00 0.00 0.00 68 1007.3
20260507155515 16 47 8.0 17.7 0.00 0.00 0.00 68 1007.4
20260507154613 17 131 4.8 12.9 0.00 0.00 0.00 64 1007.4
20260507153610 18 118 6.4 17.7 0.00 0.00 0.00 62 1007.3
20260507152608 18 65 3.2 11.3 0.00 0.00 0.00 62 1007.3
20260507151605 17 34 6.4 11.3 0.00 0.00 0.00 63 1007.3
20260507150602 18 21 3.2 12.9 0.00 0.00 0.00 61 1007.4
20260507145600 17 91 6.4 12.9 0.00 0.00 0.00 62 1007.6
20260507144557 18 62 6.4 17.7 0.00 0.00 0.00 62 1007.7
20260507143555 17 70 6.4 12.9 0.00 0.00 0.00 64 1007.6
20260507142552 18 146 3.2 9.7 0.00 0.00 0.00 62 1008.0
20260507141549 18 338 4.8 14.5 0.00 0.00 0.00 63 1007.8
20260507140547 17 346 6.4 12.9 0.00 0.00 0.00 64 1007.9
20260507135544 18 128 3.2 11.3 0.00 0.00 0.00 61 1007.9
20260507134542 17 55 8.0 17.7 0.00 0.00 0.00 64 1008.1
20260507133539 17 342 11.3 27.4 0.00 0.00 0.00 64 1008.1
20260507132536 18 77 9.7 24.1 0.00 0.00 0.00 64 1008.1
20260507131534 17 46 8.0 17.7 0.00 0.00 0.00 67 1008.3
20260507130531 18 2 8.0 24.1 0.00 0.00 0.00 64 1008.4
20260507125529 18 60 8.0 24.1 0.00 0.00 0.00 64 1008.5
20260507124526 18 198 6.4 17.7 0.00 0.00 0.00 65 1008.5
20260507123523 18 197 6.4 20.9 0.00 0.00 0.00 64 1008.4
20260507122521 18 47 9.7 22.5 0.00 0.00 0.00 65 1008.4
20260507121518 19 118 4.8 12.9 0.00 0.00 0.00 62 1008.6
20260507120515 18 15 11.3 25.7 0.00 0.00 0.00 64 1008.5
20260507115613 19 164 4.8 14.5 0.00 0.00 0.00 62 1008.6
20260507114610 18 331 6.4 14.5 0.00 0.00 0.00 64 1008.6
20260507113608 18 42 8.0 17.7 0.00 0.00 0.00 66 1008.7
20260507112605 18 82 4.8 12.9 0.00 0.00 0.00 66 1008.8
20260507111603 18 163 3.2 9.7 0.00 0.00 0.00 66 1008.9
20260507110600 18 80 4.8 14.5 0.00 0.00 0.00 66 1009.0
20260507105557 19 141 3.2 12.9 0.00 0.00 0.00 63 1009.1
20260507104555 19 173 3.2 11.3 0.00 0.00 0.00 61 1009.2
20260507103552 18 52 3.2 6.4 0.00 0.00 0.00 61 1009.3
20260507102550 18 127 3.2 11.3 0.00 0.00 0.00 61 1009.5
20260507101547 19 161 3.2 6.4 0.00 0.00 0.00 61 1009.4
20260507100545 18 38 3.2 11.3 0.00 0.00 0.00 62 1009.4
20260507095542 18 84 3.2 6.4 0.00 0.00 0.00 64 1009.6
20260507094539 17 1 8.0 14.5 0.00 0.00 0.00 69 1009.6
20260507093537 16 0 1.6 3.2 0.00 0.00 0.00 71 1009.8
20260507092534 16 12 3.2 6.4 0.00 0.00 0.00 71 1009.7
20260507091532 17 0 1.6 6.4 0.00 0.00 0.00 69 1009.5
20260507090559 16 144 1.6 6.4 0.00 0.00 0.00 72 1009.4
20260507085556 16 94 4.8 9.7 0.00 0.00 0.00 70 1009.5
20260507084554 16 36 4.8 12.9 0.00 0.00 0.00 72 1009.5
20260507083551 15 71 4.8 11.3 0.00 0.00 0.00 73 1009.5
20260507082548 16 46 3.2 9.7 0.00 0.00 0.00 72 1009.6
20260507081546 15 12 4.8 17.7 0.00 0.00 0.00 75 1009.6
20260507080543 15 89 3.2 6.4 0.00 0.00 0.00 78 1009.7
20260507075541 15 78 0.0 3.2 0.00 0.00 0.00 79 1009.8
20260507074538 14 55 1.6 6.4 0.00 0.00 0.00 82 1009.8
20260507073535 13 342 4.8 9.7 0.00 0.00 0.00 81 1009.7
20260507072533 13 359 3.2 9.7 0.00 0.00 0.00 80 1009.9
20260507071530 13 3 1.6 6.4 0.00 0.00 0.00 79 1009.8
20260507070528 14 99 1.6 6.4 0.00 0.00 0.00 78 1009.6